Weather History for Elizabethton, TN

Change the Weather History Date:

Thursday, July 4, 2013

  Actual Average (KTRI) Record (KTRI)
Temperature  
Mean Temperature 70 °F 74 °F  
Max Temperature 80 °F 86 °F 95 °F (1993)
Min Temperature 60 °F 64 °F 52 °F (1996)
Degree Days  
Heating Degree Days 0 0  
Month to date heating degree days 0  
Since 1 June heating degree days 11  
Since 1 July heating degree days 0  
Cooling Degree Days 5 10  
Month to date cooling degree days 37  
Year to date cooling degree days 316  
Since 1 June cooling degree days 243  
Growing Degree Days 20 (Base 50)    
Moisture  
Dew Point 65 °F    
Average Humidity 86    
Maximum Humidity 100    
Minimum Humidity 61    
Precipitation  
Precipitation 0.00 in 0.14 in 1.24 in (1965)
Month to date precipitation 0.57  
Year to date precipitation 21.86  
Snow  
Snow 0.00 in 0.00 in - ()
Month to date snowfall 0.0  
Since 1 June snowfall 0.0  
Since 1 July snowfall 0.0  
Snow Depth -    
Sea Level Pressure  
Sea Level Pressure 30.22 in    
Wind  
Wind Speed 4 mph (East)    
Max Wind Speed 9 mph    
Max Gust Speed -    
Visibility 10 miles    
Events Rain    
T = Trace of Precipitation, MM = Missing Value Source: NWS Daily Summary

Daily Weather History Graph

Daily Weather History Graph

Search for Another Location

Airport:

Trip Planner

Search our weather history database for the weather conditions in past years. The results will help you decide how hot, cold, wet, or windy it might be!

Date:

Astronomy

Jul. 04, 2013 Rise Set
Actual Time 6:16 AM EDT 8:50 PM EDT
Civil Twilight 5:45 AM EDT 9:20 PM EDT
Nautical Twilight 5:08 AM EDT 9:57 PM EDT
Astronomical Twilight 4:26 AM EDT 10:39 PM EDT
Moon 3:29 AM EDT (7/4) 5:55 PM EDT (7/4)
Length of Visible Light 15h 34m
Length of Day
14h 33m
Waning Crescent, 11% of the Moon is Illuminated
Jul 4
Waning Crescent
Jul 8
New
Jul 15
First Quarter
Jul 22
Full
Jul 29
Last Quarter

Hourly Weather History & Observations

Time (EDT) Temp. Heat Index Dew Point Humidity Pressure Visibility Wind Dir Wind Speed Gust Speed Precip Events Conditions
12:15 AM 60.8 °F - 60.8 °F 100% 30.24 in 10.0 mi ENE 6.9 mph - N/A   Partly Cloudy
12:35 AM 60.8 °F - 60.8 °F 100% 30.25 in 10.0 mi East 4.6 mph - N/A   Mostly Cloudy
12:55 AM 60.8 °F - 60.8 °F 100% 30.25 in 10.0 mi ESE 3.5 mph - N/A   Mostly Cloudy
1:15 AM 60.8 °F - 60.8 °F 100% 30.25 in 10.0 mi Calm Calm - N/A   Scattered Clouds
1:35 AM 60.8 °F - 60.8 °F 100% 30.24 in 10.0 mi ENE 3.5 mph - N/A   Scattered Clouds
1:55 AM 60.8 °F - 60.8 °F 100% 30.24 in 10.0 mi East 3.5 mph - N/A   Scattered Clouds
2:15 AM 62.6 °F - 60.8 °F 94% 30.24 in 10.0 mi East 6.9 mph - N/A Rain Light Rain
2:35 AM 62.6 °F - 60.8 °F 94% 30.23 in 8.0 mi East 4.6 mph - N/A Rain Light Rain
2:55 AM 62.6 °F - 60.8 °F 94% 30.22 in 6.0 mi East 5.8 mph - N/A Rain Rain
3:15 AM 62.6 °F - 60.8 °F 94% 30.22 in 10.0 mi ENE 5.8 mph - N/A   Light Drizzle
3:35 AM 62.6 °F - 60.8 °F 94% 30.22 in 10.0 mi ENE 4.6 mph - N/A   Mostly Cloudy
3:55 AM 62.6 °F - 60.8 °F 94% 30.22 in 10.0 mi Calm Calm - N/A   Mostly Cloudy
4:15 AM 62.6 °F - 60.8 °F 94% 30.23 in 10.0 mi ENE 3.5 mph - N/A   Overcast
4:35 AM 62.6 °F - 62.6 °F 100% 30.24 in 10.0 mi NNE 3.5 mph - N/A Rain Light Rain
4:55 AM 62.6 °F - 62.6 °F 100% 30.24 in 5.0 mi Calm Calm - N/A Rain Heavy Rain
5:15 AM 62.6 °F - 62.6 °F 100% 30.24 in 4.0 mi NNE 4.6 mph - N/A Rain Heavy Rain
5:35 AM 62.6 °F - 62.6 °F 100% 30.23 in 6.0 mi Calm Calm - N/A Rain Heavy Rain
5:55 AM 62.6 °F - 62.6 °F 100% 30.23 in 10.0 mi ENE 3.5 mph - N/A Rain Light Rain
6:15 AM 62.6 °F - 62.6 °F 100% 30.21 in 10.0 mi East 5.8 mph - N/A   Scattered Clouds
6:35 AM 62.6 °F - 62.6 °F 100% 30.23 in 10.0 mi Calm Calm - N/A   Scattered Clouds
6:55 AM 62.6 °F - 62.6 °F 100% 30.24 in 10.0 mi Calm Calm - N/A   Scattered Clouds
7:15 AM 64.4 °F - 64.4 °F 100% 30.24 in 10.0 mi ENE 3.5 mph - N/A   Mostly Cloudy
7:35 AM 64.4 °F - 64.4 °F 100% 30.23 in 10.0 mi ENE 3.5 mph - N/A   Overcast
7:55 AM 64.4 °F - 64.4 °F 100% 30.23 in 10.0 mi Calm Calm - N/A   Mostly Cloudy
8:15 AM 64.4 °F - 64.4 °F 100% 30.23 in 10.0 mi Calm Calm - N/A   Overcast
8:35 AM 66.2 °F - 64.4 °F 94% 30.24 in 10.0 mi Calm Calm - N/A   Mostly Cloudy
8:55 AM 66.2 °F - 64.4 °F 94% 30.25 in 10.0 mi Calm Calm - N/A   Mostly Cloudy
9:15 AM 68.0 °F - 66.2 °F 94% 30.25 in 10.0 mi Calm Calm - N/A   Mostly Cloudy
9:35 AM 68.0 °F - 66.2 °F 94% 30.25 in 10.0 mi ENE 3.5 mph - N/A   Overcast
9:55 AM 69.8 °F - 66.2 °F 88% 30.24 in 10.0 mi NE 3.5 mph - N/A   Partly Cloudy
10:15 AM 71.6 °F - 66.2 °F 83% 30.24 in 10.0 mi Calm Calm - N/A   Clear
10:35 AM 71.6 °F - 66.2 °F 83% 30.24 in 10.0 mi Calm Calm - N/A   Scattered Clouds
10:55 AM 71.6 °F - 66.2 °F 83% 30.24 in 10.0 mi Calm Calm - N/A   Light Drizzle
11:15 AM 73.4 °F - 66.2 °F 78% 30.24 in 10.0 mi East 4.6 mph - N/A   Partly Cloudy
11:35 AM 73.4 °F - 66.2 °F 78% 30.24 in 10.0 mi Calm Calm - N/A   Partly Cloudy
11:55 AM 75.2 °F - 66.2 °F 73% 30.24 in 10.0 mi ENE 4.6 mph - N/A   Partly Cloudy
12:15 PM 77.0 °F - 66.2 °F 69% 30.23 in 10.0 mi ESE 5.8 mph - N/A   Scattered Clouds
12:35 PM 77.0 °F - 68.0 °F 74% 30.23 in 10.0 mi East 8.1 mph - N/A   Scattered Clouds
12:55 PM 75.2 °F - 66.2 °F 73% 30.22 in 10.0 mi East 6.9 mph - N/A   Light Drizzle
1:15 PM 75.2 °F - 68.0 °F 78% 30.22 in 9.0 mi East 6.9 mph - N/A Rain Light Rain
1:35 PM 77.0 °F - 68.0 °F 74% 30.21 in 10.0 mi Variable 3.5 mph - N/A   Clear
1:55 PM 78.8 °F - 69.8 °F 74% 30.20 in 10.0 mi Variable 5.8 mph - N/A   Partly Cloudy
2:15 PM 80.6 °F 82.7 °F 66.2 °F 61% 30.19 in 10.0 mi East 8.1 mph - N/A   Mostly Cloudy
2:35 PM 78.8 °F - 66.2 °F 65% 30.20 in 10.0 mi East 8.1 mph - N/A   Mostly Cloudy
2:55 PM 78.8 °F - 66.2 °F 65% 30.19 in 10.0 mi ESE 5.8 mph - N/A   Mostly Cloudy
3:15 PM 78.8 °F - 68.0 °F 69% 30.19 in 10.0 mi Variable 3.5 mph - N/A   Mostly Cloudy
3:35 PM 78.8 °F - 66.2 °F 65% 30.19 in 10.0 mi East 8.1 mph - N/A   Light Drizzle
3:55 PM 78.8 °F - 66.2 °F 65% 30.19 in 10.0 mi South 6.9 mph - N/A   Light Drizzle
4:15 PM 78.8 °F - 66.2 °F 65% 30.19 in 10.0 mi Variable 3.5 mph - N/A   Scattered Clouds
4:35 PM 77.0 °F - 66.2 °F 69% 30.20 in 10.0 mi ESE 9.2 mph - N/A   Scattered Clouds
4:55 PM 75.2 °F - 66.2 °F 73% 30.19 in 10.0 mi East 8.1 mph - N/A   Partly Cloudy
5:15 PM 75.2 °F - 66.2 °F 73% 30.19 in 10.0 mi ENE 3.5 mph - N/A   Clear
5:35 PM 75.2 °F - 66.2 °F 73% 30.19 in 10.0 mi East 5.8 mph - N/A   Clear
5:55 PM 75.2 °F - 68.0 °F 78% 30.19 in 10.0 mi ENE 6.9 mph - N/A   Partly Cloudy
6:15 PM 75.2 °F - 66.2 °F 73% 30.19 in 10.0 mi East 5.8 mph - N/A   Partly Cloudy
6:35 PM 75.2 °F - 66.2 °F 73% 30.19 in 10.0 mi East 4.6 mph - N/A Rain Light Rain
6:55 PM 73.4 °F - 66.2 °F 78% 30.19 in 10.0 mi East 6.9 mph - N/A   Clear
7:15 PM 73.4 °F - 64.4 °F 73% 30.19 in 10.0 mi ENE 6.9 mph - N/A   Clear
7:35 PM 73.4 °F - 64.4 °F 73% 30.20 in 10.0 mi ENE 4.6 mph - N/A   Clear
7:55 PM 73.4 °F - 64.4 °F 73% 30.20 in 10.0 mi East 6.9 mph - N/A   Partly Cloudy
8:15 PM 71.6 °F - 64.4 °F 78% 30.21 in 10.0 mi East 5.8 mph - N/A   Partly Cloudy
8:35 PM 71.6 °F - 64.4 °F 78% 30.21 in 6.0 mi Calm Calm - N/A Rain Heavy Rain
8:55 PM 69.8 °F - 66.2 °F 88% 30.22 in 7.0 mi Variable 3.5 mph - N/A Rain Heavy Rain
9:15 PM 68.0 °F - 66.2 °F 94% 30.22 in 7.0 mi Calm Calm - N/A Rain Light Rain
9:35 PM 68.0 °F - 66.2 °F 94% 30.22 in 10.0 mi Calm Calm - N/A Rain Light Rain
9:55 PM 66.2 °F - 66.2 °F 100% 30.22 in 6.0 mi ENE 5.8 mph - N/A Rain Light Rain
10:15 PM 68.0 °F - 64.4 °F 88% 30.22 in 10.0 mi Variable 4.6 mph - N/A   Clear
10:35 PM 66.2 °F - 64.4 °F 94% 30.22 in 10.0 mi Variable 6.9 mph - N/A   Clear
10:55 PM 66.2 °F - 64.4 °F 94% 30.23 in 10.0 mi Calm Calm - N/A   Partly Cloudy
11:15 PM 66.2 °F - 64.4 °F 94% 30.23 in 10.0 mi East 4.6 mph - N/A   Mostly Cloudy
11:35 PM 66.2 °F - 64.4 °F 94% 30.22 in 10.0 mi East 4.6 mph - N/A   Mostly Cloudy
11:55 PM 66.2 °F - 64.4 °F 94% 30.22 in 10.0 mi Calm Calm - N/A   Partly Cloudy